Flag for Germany Weather past 2 weeks in Mönchengladbach, North Rhine-Westphalia, Germany

Now
63 °F

Clear.


Feels Like: 63 °F
Forecast: 64 / 81 °F
Wind: 7 mph from Southeast

Location: Duesseldorf

Current Time: Aug 1, 2014 at 4:12:14 AM

Latest Report: Aug 1, 2014 at 3:50 AM


Visibility: 10 mi

Pressure: 29.89 "Hg

Humidity: 73%

Dew point: 54 °F

Location of MönchengladbachLocation

Historic Weather in Mönchengladbach — Graph

°F

Mönchengladbach temperature yesterday

Maximum temperature yesterday: 79 °F (at 5:50 PM)
Minimum temperature yesterday: 55 °F (at 5:20 AM)
Average temperature yesterday: 67 °F

Past Weeks' High & Low Weather Summary

 TemperatureHumidityPressure
High93 °F (Jul 19, 3:50 PM)100% (Jul 21, 11:20 PM)30.18 "Hg (Jul 21, 11:20 PM)
Low55 °F (Jul 31, 5:20 AM)23% (Jul 19, 4:50 PM)29.77 "Hg (Jul 19, 10:50 PM)
Average72 °F69%29.94 "Hg
* Reported Jul 17 2:20 AM — Aug 1 2:50 AM, Mönchengladbach, Weather by CustomWeather, © 2014

Note: Actual official high and low records may vary slightly from our data, if they occured in-between our weather recording intervals... More about our weather records

Advertising

Mönchengladbach weather history for previous 24 hours

 ConditionsComfort  
Time TempWeatherWind HumidityBarometerVisibility
2:50 AM
Aug 1
63 °FClear.6 mph77%29.89 "Hg10 mi
2:20 AM64 °FClear.2 mph73%29.89 "Hg10 mi
1:50 AM63 °FClear.2 mph77%29.89 "Hg10 mi
1:20 AM63 °FClear.3 mph77%29.89 "Hg10 mi
12:50 AM63 °FClear.5 mph77%29.92 "Hg10 mi
12:20 AM63 °FClear.3 mph77%29.92 "Hg10 mi
11:50 PM
Jul 31
64 °FClear.5 mph78%29.92 "Hg10 mi
11:20 PM64 °FClear.3 mph78%29.92 "Hg10 mi
10:50 PM64 °FClear.5 mph78%29.92 "Hg10 mi
10:20 PM66 °FSunny.5 mph73%29.92 "Hg10 mi
9:50 PM68 °FSunny.3 mph69%29.92 "Hg10 mi
9:20 PM72 °FSunny.5 mph61%29.92 "Hg10 mi
8:50 PM73 °FSunny.5 mph53%29.92 "Hg10 mi
8:20 PM75 °FSunny.5 mph47%29.92 "Hg10 mi
7:50 PM77 °FSunny.3 mph42%29.92 "Hg10 mi
7:20 PM77 °FSunny.3 mph39%29.92 "Hg10 mi
6:50 PM79 °FSunny.2 mph39%29.92 "Hg10 mi
6:20 PM77 °FSunny.5 mph39%29.92 "Hg10 mi
5:50 PM79 °FPassing clouds.5 mph37%29.92 "HgN/A
5:20 PM77 °FSunny.7 mph39%29.95 "Hg10 mi
4:50 PM77 °FSunny.6 mph39%29.95 "Hg10 mi
4:20 PM77 °FPassing clouds.8 mph42%29.95 "HgN/A
3:50 PM77 °FSunny.5 mph44%29.95 "Hg10 mi
3:20 PM75 °FSunny.6 mph44%29.98 "Hg10 mi
2:50 PM75 °FPassing clouds.5 mph47%29.98 "HgN/A
2:20 PM73 °FPassing clouds.5 mph50%29.98 "HgN/A
1:50 PM73 °FPassing clouds.7 mph50%29.98 "HgN/A
1:20 PM72 °FPassing clouds.8 mph53%29.98 "HgN/A
12:50 PM72 °FPassing clouds.7 mph53%30.01 "HgN/A
12:20 PM70 °FPassing clouds.8 mph60%30.01 "HgN/A
11:50 AM68 °FPassing clouds.7 mph60%30.01 "HgN/A
11:20 AM68 °FPassing clouds.6 mph60%30.01 "HgN/A
10:50 AM68 °FPassing clouds.3 mph64%30.01 "HgN/A
10:20 AM66 °FPassing clouds.5 mph68%30.01 "HgN/A
9:50 AM64 °FPassing clouds.3 mph73%30.01 "HgN/A
9:20 AM63 °FPassing clouds.3 mph77%30.01 "HgN/A
8:50 AM63 °FPassing clouds.3 mph77%30.01 "HgN/A
8:20 AM61 °FSunny.3 mph83%30.01 "Hg10 mi
7:50 AM59 °FSunny.2 mph88%30.01 "Hg10 mi
7:20 AM57 °FSunny.2 mph94%30.01 "Hg10 mi
6:50 AM55 °FFog.1 mph94%30.01 "HgN/A
6:20 AM55 °FFog.2 mph88%30.01 "HgN/A
5:50 AM55 °FFog.3 mph88%30.01 "HgN/A
5:20 AM55 °FFog.1 mph94%30.01 "HgN/A
4:50 AM57 °FFog.2 mph88%30.01 "HgN/A
4:20 AM57 °FPassing clouds.3 mph88%30.01 "HgN/A
Weather by CustomWeather, © 2014

See weather overviewHow to use our weather pages